This demonstration page uses our WeatherBlox Daily Observations layout. Learn more.

Left ArrowRight Arrow

Hourly Observations for June 4, 2017

Temp ( °F °C ) Dew Point ( °F °C ) Humidity (%) Winds ( mph kmh ) Pressure ( in mb ) Visibility ( mi km ) Precip ( " mm )
12:53 am 00:53 Clear 72 22.2 71 21.7 97 97 Calm 29.99 1016 10 16 0.00 0.00
1:53 am 01:53 Clear 72 22.2 72 22.2 100 100 Calm 29.98 1015 10 16 0.00 0.00
2:53 am 02:53 Clear 71 21.7 71 21.7 100 100 Calm 29.97 1015 10 16 0.00 0.00
3:53 am 03:53 Clear 71 21.7 71 21.7 100 100 Calm 29.97 1015 10 16 0.00 0.00
4:53 am 04:53 Clear 71 21.7 71 21.7 100 100 Calm 29.96 1015 10 16 0.00 0.00
5:53 am 05:53 Mostly Cloudy 71 21.7 71 21.7 100 100 Calm 29.97 1015 10 16 0.00 0.00
6:53 am 06:53 Mostly Cloudy 72 22.2 71 21.7 97 97 Calm 29.98 1015 10 16 0.00 0.03
7:53 am 07:53 Partly Cloudy 73 22.8 72 22.2 96 96 Calm 29.98 1015 10 16 0.00 0.00
8:53 am 08:53 Cloudy 74 23.3 71 21.7 91 91 Calm 29.98 1015 10 16 0.00 0.03
9:53 am 09:53 Cloudy 72 22.2 72 22.2 100 100 NNW 5 7 30.00 1016 7 11 0.17 4.32
10:53 am 10:53 Sunny 74 23.3 73 22.8 97 97 NE 5 7 29.98 1015 10 16 0.03 0.76
11:31 am 11:31 Mostly Cloudy 75 23.9 73 22.8 94 94 Calm 30.00 1016 10 16 0.00 0.00
11:53 am 11:53 Cloudy 75 23.9 73 22.8 94 94 NW 5 7 30.00 1016 10 16 0.00 0.00
12:53 pm 12:53 Cloudy with Nearby Thunderstorms 75 23.9 73 22.8 94 94 E 8 13 29.99 1016 10 16 0.00 0.03
1:12 pm 13:12 Cloudy 74 23.3 72 22.2 94 94 ENE 8 13 29.97 1015 10 16 0.00 0.00
1:53 pm 13:53 Cloudy with Light Rain 75 23.9 72 22.2 90 90 ENE 6 9 29.97 1015 10 16 0.00 0.03
2:53 pm 14:53 Cloudy 77 25 71 21.7 82 82 E 8 13 29.93 1014 10 16 0.00 0.03
3:34 pm 15:34 Mostly Cloudy 79 26.1 72 22.2 79 79 E 9 15 29.91 1013 10 16 0.00 0.00
3:48 pm 15:48 Mostly Cloudy 79 26 72 22 79 79 ESE 7 11 29.91 1013 10 16 0.00 0.00
3:53 pm 15:53 Cloudy 79 26.1 72 22.2 79 79 E 6 9 29.91 1013 10 16 0.00 0.00
4:53 pm 16:53 Mostly Cloudy 80 26.7 70 21.1 71 71 E 6 9 29.89 1012 10 16 0.00 0.00
5:53 pm 17:53 Mostly Cloudy 80 26.7 71 21.7 74 74 SE 10 17 29.88 1012 10 16 0.00 0.00
6:53 pm 18:53 Cloudy with Light Rain 77 25 72 22.2 85 85 SE 6 9 29.88 1012 10 16 0.01 0.25
7:53 pm 19:53 Cloudy with Light Rain 74 23.3 72 22.2 94 94 SSE 5 7 29.90 1012 10 16 0.00 0.03
8:53 pm 20:53 Cloudy with Light Rain 73 22.8 72 22.2 96 96 SE 5 7 29.91 1013 10 16 0.06 1.52
9:50 pm 21:50 Cloudy with Heavy Rain 72 22 72 22 100 100 Calm 29.91 1013 4 6 0.16 4.06
9:53 pm 21:53 Cloudy with Heavy Rain 72 22.2 72 22.2 100 100 Calm 29.91 1013 4 6 0.17 4.32
10:53 pm 22:53 Mostly Cloudy 72 22.2 72 22.2 100 100 Calm 29.90 1013 10 16 0.05 1.27
11:53 pm 23:53 Cloudy 72 22.2 72 22.2 100 100 ESE 3 6 29.90 1013 10 16 0.02 0.51

Powered by AerisWeather